OBJECT G, 63297

Orbit data source: Space-Track

You're viewing an Uncataloged Satellite

Recently launched and/or uncataloged satellites may have evolving metadata. Metadata may include but not limited to: Owner, Maufacturer, Bus, Motor, and Mission.

OBJECT G, 63297 is a Chinese satellite in SSO that was launched on Mon, 17 Mar 2025 UTC via a GUSHENXING 1 launch vehicle from the Jiuquan Satellite Launch Center, China (JSC). Unknown objects in Earth's orbit typically refer to objects detected orbiting the Earth but have not yet been identified or cataloged. These objects could be anything from previously untracked satellites, spent rocket stages, debris from satellite collisions, or even natural meteoroids temporarily captured by Earth's gravity.

Loading next visibility...
Identifier
63297, 2025-055G
Orbit
SSO
Last TLE update
9 hours ago
Origin
Flag of CNZHWK/JIG (CN / PRC)
Manufacturer
ZHWK/HITSAT
Mission
Operational Commercial Imaging
Bus & Motor
ZK1, Unknown motor
Mass
~250 kg wet, ~250 kg dry
Launch date (UTC)
2025-03-17 (4 months ago)
Launch vehicle
GUSHENXING 1
Launch site
Jiuquan Satellite Launch Center, China (JSC)
Object type
Unknown
Shape & HBR
Box + 3 Pan, 6 m
Radar Cross Section
3.533 m², Medium (>0.1 m² and < 1m²)

Expand to show TLE details & history

TLE from 9 hours ago
0 OBJECT G
1 63297U 25055G   25184.22304017  .00007375  00000-0  42288-3 0  9992
2 63297  97.6126 319.0987 0009614 284.0993  75.9169 15.12835691 16265
Epoch: 2025-07-03T05:21Z
TLE epoch observation values (Epoch: 2025-07-03T05:21:10.67Z)
Latitude
-0.00003°
Longitude
-42.68863°
Altitude
529.022 km
Speed
7.599 km/s
True Right ascension
21h 16m 23s
True Declination
0° 00' 00"
Sunlit
Object was in full shadow at epoch
Visualization orbit readout
Latitude
-9.95664°
Longitude
136.33915°
Altitude
532.78 km
Speed
7.596 km/s
Apparent Right ascension
11h 07m 14s
Apparent Declination
-28° 39' 28"
Sunlit
Object is in daylight
Visualization observer readout
Local Sidereal Time
01:54:36
Azimuth
84.956° E
Elevation
-54.013°
Doppler factor
1
Orbital elements
Apogee altitude
531.178 km
Perigee altitude
517.905 km
Semi-major axis
6,902.678 km
Eccentricity
0.00096
Inclination
97.6126°
RAAN
319.0987°
Arg. of periapsis
284.0993°
True anomaly
Unknown
Mean anomaly
75.9169°
Eccentric anomaly
Unknown
Mean motion
3.78457 °/min
Orbital period
95.12 mins
BSTAR
0.00042288
Loading maneuver chart data...
Loading SW <> Apogee altitude chart data...
Loading historical data...
Loading historical data...
Loading historical data...
Loading historical data...
Loading historical data...
Loading historical data...
Loading historical data...

OBJECT G Visibility forecast

Observer location: undefined°, undefined°

Span
Click to sort rows by Start time (UTC) header in descending order
Start Az.
Max El. time (UTC)
Max El. Az.
Max El.
End time (UTC)
End Az.
6 mins2025-07-03 21:47:39.719Z16.843° NNE2025-07-03 21:50:39.719Z102.671° ESE44.114°2025-07-03 21:53:39.719Z186.799° SSW
5 mins2025-07-04 08:29:39.719Z118.857° SE2025-07-04 08:31:39.719Z64.437° ENE28.206°2025-07-04 08:34:39.719Z9.182° NNE
|